Location: Marseilles
(40.7010°N, 83.3930°W)
Time: 23:36:18
(UTC-04:00)

Cosmos 1459 Rocket - Visible Passes

Search period start: 28 April 2017 00:00
Search period end: 08 May 2017 00:00
Orbit: 937 x 1001 km, 83.0° (Epoch: 27 April)

Date Brightness Start Highest point End Pass type
(mag) Time Alt. Az. Time Alt. Az. Time Alt. Az.
28 Apr 4.7 04:44:37 10° N 04:50:40 54° E 04:56:46 10° SSE visible
29 Apr 6.6 03:25:00 10° NE 03:28:04 14° ENE 03:31:09 10° E visible
29 Apr 4.0 05:07:53 10° N 05:14:06 87° W 05:20:23 10° S visible
30 Apr 6.0 03:46:57 10° NNE 03:51:54 24° ENE 03:56:53 10° SE visible
30 Apr 4.2 05:31:28 10° NNW 05:37:24 50° W 05:43:24 10° SSW visible
01 May 5.1 04:09:43 10° N 04:15:35 42° ENE 04:21:28 10° SSE visible
01 May 4.9 05:55:23 10° NNW 06:00:34 29° W 06:05:46 10° SW visible
02 May 6.8 02:51:57 10° NE 02:52:46 10° ENE 02:53:35 10° ENE visible
02 May 4.2 04:32:51 10° N 04:39:05 73° E 04:45:22 10° SSE visible
03 May 6.3 03:12:25 10° NNE 03:16:42 19° ENE 03:21:00 10° ESE visible
03 May 4.0 04:56:18 10° NNW 05:02:27 66° W 05:08:40 10° S visible
04 May 5.5 03:34:55 10° NNE 03:40:27 32° ENE 03:46:01 10° SE visible
04 May 4.6 05:20:01 10° NNW 05:25:40 37° W 05:31:22 10° SSW visible
05 May 4.6 03:57:54 10° N 04:04:02 56° E 04:10:13 10° SSE visible
05 May 5.2 05:44:14 10° NW 05:48:45 21° W 05:53:18 10° SW visible
06 May 6.5 02:38:09 10° NE 02:41:26 15° ENE 02:44:45 10° E visible
06 May 3.9 04:21:12 10° N 04:27:28 85° W 04:32:47 15° S visible
07 May 5.8 03:00:12 10° NNE 03:05:18 25° ENE 03:10:23 10° SE visible
07 May 4.3 04:44:47 10° NNW 04:50:45 49° W 04:55:22 17° SSW visible
